Regional Weather Roundup
Issued by NWS

Home | Current Version | Previous Version | Graphics & Text | Print | Product List | Glossary On
Versions: 1 2 3 4 5 6 7 8 9 10 11 12 13 14 15 16 17 18 19 20 21 22 23 24 25 26 27 28 29 30 31 32 33 34 35 36 37 38 39 40 41 42 43 44 45 46 47 48 49 50
000
ASUS43 KDMX 020407
RWRIA

WEATHER ROUNDUP FOR IOWA
NATIONAL WEATHER SERVICE DES MOINES IA
1100 PM CDT TUE SEP 01 2015

NOTE: "FAIR" INDICATES FEW OR NO CLOUDS BELOW 12,000 FEET WITH NO
SIGNIFICANT WEATHER AND/OR OBSTRUCTIONS TO VISIBILITY.

* - THESE STATIONS ARE NOT NWS STATIONS...THUS NOT UNDER NWS
QUALITY CONTROL.  THEY ALSO DO NOT REPORT WEATHER SUCH
AS PRECIPITATION OR FOG.

IAZ001>003-012>014-020>022-031>034-043>046-020500-
   NORTHWEST IOWA

CITY           SKY/WX    TMP DP  RH WIND       PRES   REMARKS
CARROLL *      PTCLDY    75  70  83 S12       29.95R
CHEROKEE *     PTCLDY    75  72  88 S10       29.91R
DENISON *      MOCLDY    75  70  83 S12       29.92S
LE MARS *      CLEAR     77  72  83 S9        29.89S
ORANGE CITY *  CLEAR     75  72  88 S9        29.89S
SHELDON *      CLOUDY    75  72  88 S10G18    29.88S
SIOUX CITY     CLEAR     76  68  76 SE12      29.88S
SPENCER        CLOUDY    77  70  79 S14       29.91S
STORM LAKE *   PTCLDY    73  70  88 S10G16    29.94S
$$

IAZ055>058-069>071-079>083-090>094-020500-
   SOUTHWEST IOWA

CITY           SKY/WX    TMP DP  RH WIND       PRES   REMARKS
ATLANTIC *     PTCLDY    77  70  78 S9G17     29.96S
AUDUBON *      CLEAR     75  70  83 S7        29.98R
CLARINDA *     PTCLDY    77  70  78 S10       30.00R
COUNCIL BLFS * CLEAR     77  68  73 S15       29.94S
CRESTON *      CLEAR     75  68  78 S12       30.01S
LAMONI         CLEAR     75  68  78 S8        30.02R
RED OAK *      CLOUDY    77  70  78 S12       29.96S
SHENANDOAH *   CLEAR     79  70  73 S12G20    29.97R HX  81
$$

IAZ047>049-059>061-072>074-084-020500-
   CENTRAL IOWA

CITY           SKY/WX    TMP DP  RH WIND       PRES   REMARKS
AMES           PTCLDY    73  69  87 S9        29.97S
ANKENY *       CLEAR     72  70  94 S5        29.98S
CHARITON *     PTCLDY    77  68  73 S8        30.01S
DES MOINES     MOCLDY    75  67  76 S8        29.98R
GRINNELL*      CLEAR     75  68  78 S7        30.01S
KNOXVILLE *    PTCLDY    75  68  78 S6        29.99R
MARSHALLTOWN   CLEAR     74  70  87 SE7       29.98S
PELLA *        CLEAR     73  72  94 SE5       30.01S
PERRY *          N/A     75  70  85 S8        29.97S
$$

IAZ004>006-015-016-023>025-035-036-020500-
   NORTH CENTRAL IOWA

CITY           SKY/WX    TMP DP  RH WIND       PRES   REMARKS
ALGONA *       CLEAR     75  72  88 S12       29.94S
CLARION *      CLEAR     75  72  88 S13       29.96S
ESTHERVILLE    MOCLDY    74  72  93 S10       29.92S
FORT DODGE *   PTCLDY    79  68  69 S9        29.96S HX  81
MASON CITY     PTCLDY    73  72  96 S7        29.97F
FOREST CITY *  CLEAR     70  70 100 SE6       29.96S
IOWA FALLS *     N/A     73  70  88 S7        29.99S
$$

IAZ007>011-017>019-026>030-037>042-050>054-066-020500-
   NORTHEAST IOWA

CITY           SKY/WX    TMP DP  RH WIND       PRES   REMARKS
CEDAR RAPIDS   PTCLDY    73  71  93 S5        30.01R
CHARLES CITY * PTCLDY    75  75 100 S7        29.99S
CLINTON *      PTCLDY    73  70  88 S5        30.05R
DECORAH *      CLEAR     75  73  94 S7        29.99R
DUBUQUE        MOCLDY    72  70  93 SW7       30.03R
MONTICELLO *   CLEAR     72  70  94 CALM      30.01S
OELWEIN *      CLEAR     73  72  94 S7        30.01S
WATERLOO       PTCLDY    75  71  87 S7        29.98R
$$

IAZ064-065-067-068-078-020500-
   EAST CENTRAL IOWA

CITY           SKY/WX    TMP DP  RH WIND       PRES   REMARKS
DAVENPORT      PTCLDY    74  69  85 S6        30.03R
IOWA CITY      PTCLDY    75  69  81 CALM      30.02S
MT. PLEASANT * MOCLDY    75  68  78 S5        30.03S
MUSCATINE *    CLEAR     75  70  83 S3        30.02S
QUAD CITIES    PTCLDY    78  69  73 SW6       30.02R HX  80
$$

IAZ062-063-075>077-085>089-095>099-020500-
   SOUTHEAST IOWA

CITY           SKY/WX    TMP DP  RH WIND       PRES   REMARKS
BURLINGTON     PTCLDY    76  71  85 S7        30.04R
FAIRFIELD *    CLEAR     77  68  73 S6        30.03R
FORT MADISON * CLEAR     73  72  94 S5        30.04S
KEOKUK *       CLEAR     79  70  73 S8        30.03S HX  81
OSKALOOSA *      N/A     72  68  88 S6        30.02S
CENTERVILLE *  CLEAR     72  68  88 S6        30.04S
OTTUMWA        PTCLDY    74  70  87 S8        30.00S
WASHINGTON *     N/A    N/A N/A N/A MISG        N/A
$$

ABBREVIATIONS USED IN REMARKS
   TC - TEMPERATURES IN CELSIUS
  WCI - WIND CHILL INDEX
   HX - HEAT INDEX
  VSB - VISIBILITY
$$



USA.gov is the U.S. government's official web portal to all federal, state and local government web resources and services.